Showing default

ESSA 7 (TOS-E), 3345

Orbit data source: Space-Track

ESSA 7 (TOS-E), 3345 is a payload satellite owned by ESSA (US) in SSO that was launched on Fri, 16 Aug 1968 UTC via a THOR DELTA N launch vehicle from the Air Force Western Test Range (AFWTR). Payload-class satellites include a variety of spacecraft equipped with specific instruments for various scientific and technological missions. These include communications satellites like Starlink; space stations such as the ISS; scientific satellites like the Hubble; Earth observation satellites from companies like Planet Labs, Umbra, and HawkEye 360; GPS; miniature CubeSats for education and research; and military/defense satellites.

Loading next visibility...
Identifier
3345, 1968-069A
Orbit
SSO
Country
Flag of USUS
Related business
Manufacturer
RCA/East Windsor
Mission
Non-operational spacecraft
Bus & Motor
TIROS I, Unknown motor
Mass
154 kg wet, 154 kg dry
Launch date (UTC)
1968-08-16 (58 years ago)
Launch vehicle
THOR DELTA N
Launch site
Air Force Western Test Range (AFWTR)
Object type
Payload
Rocket body
Debris
Shape & HBR
Unknown
Radar Cross Section
Medium (>0.1 m² and <1 m²)

Expand to show TLE details & history
Last TLE update: 13 hours ago

TLE from 13 hours ago
0 ESSA 7 (TOS-E)
1 03345U 68069A   26120.83690699 -.00000051  00000-0 -46500-4 0  9992
2 03345 101.5569  88.3922 0026288 261.2812 113.1918 12.53009898639056
Epoch: 2026-04-30T20:05Z
TLE epoch observation values (Epoch: 2026-04-30T20:05:08.763Z)
Latitude
14.41976°
Longitude
-74.6712°
Altitude
1,461.959 km
Speed
7.129 km/s
True Right ascension
05h 41m 34s
True Declination
14° 20' 40"
Sunlit
Object was in daylight at epoch
Visualization orbit readout
Latitude
Unknown
Longitude
Unknown
Altitude
Unknown
Speed
Unknown
Apparent Right ascension
Unknown
Apparent Declination
Unknown
Sunlit
N/A
Visualization observer readout
Local Sidereal Time
16:47:55
Azimuth
Unknown
Elevation
Unknown
Doppler factor
Unknown
Orbital elements
Apogee altitude
1,470.039 km
Perigee altitude
1,428.885 km
Semi-major axis
7,827.599 km
Eccentricity
0.00263
Inclination
101.5569°
RAAN
88.3922°
Arg. of periapsis
261.2812°
True anomaly
113.46834°
Mean anomaly
113.1918°
Eccentric anomaly
113.3301°
Mean motion
3.13401 °/min
Orbital period
114.87 mins
BSTAR
-0.0000465
Loading maneuver chart data...
Computing Atmospheric mass density...
Loading historical data...
Loading historical data...
Loading historical data...
Loading historical data...
Loading historical data...
Loading historical data...
Loading historical data...

Documentation

Showing up to 5 results
|